Simultaneous Nadir Overpasses (SNOs) Predictions

Prediction of SNOs between GOES-15 and METOP-A Satellite Orbit:

Table of predicted SNOs for the next 14.0 days since TLE Epoch: 11/6/2012
Index Date Time (GOES-15) GOES-15 Lat,Lon METOP-A Lat,Lon Distance(km) Time Diff (sec)
1 11/06/2012 18:28:15 -0.28,-134.85 -0.40,-134.29 63.77 80
2 11/08/2012 06:47:13 0.27,-134.79 -0.62,-138.88 466.01 80
3 11/09/2012 06:23:51 0.27,-134.74 0.47,-133.88 98.80 80
4 11/10/2012 18:42:40 -0.26,-134.68 0.59,-138.42 426.59 80
5 11/11/2012 18:24:38 -0.27,-134.64 -0.52,-133.42 138.38 80
6 11/13/2012 06:43:36 0.25,-134.56 -0.50,-138.00 391.90 80
7 11/14/2012 06:20:13 0.26,-134.51 0.57,-132.99 172.18 80
8 11/15/2012 18:39:01 -0.25,-134.43 0.43,-137.54 354.86 80
9 11/16/2012 18:20:59 -0.25,-134.37 -0.65,-132.53 209.46 80
10 11/18/2012 06:39:54 0.23,-134.29 -0.41,-137.11 320.92 80
11 11/19/2012 06:16:32 0.24,-134.23 0.70,-132.10 242.89 80




NCC Satellite Simultaneous Nadir Overpasses (SNOs) Prediction Service
